Location: Buena Vista
(37.7110°N, 119.7938°W)
Time: 22:49:38
(UTC+00:00)

Envisat - Pass Details

Date: 22 August 2024
Orbit: 762 x 764 km, 98.3° (Epoch: 08 September)

Event Time Altitude Azimuth Distance (km) Brightness Sun altitude
Rises 10:57:40 0° 15° (NNE) 3,232 7.1 -25.9°
Reaches altitude 10° 10:59:59 10° 18° (NNE) 2,302 6.2 -25.5°
Maximum altitude 11:05:03 69° 102° (ESE) 815 3.1 -24.7°
Enters shadow 11:06:19 49° 165° (SSE) 979 3.3 -24.5°
